www.pogodaiklimat.ru

Погода и климат >> Архив погоды >> Россия >> Чукотка >> Бухта Амбарчик


ПОГОДА в Бухте Амбарчик

  • Прогноз погоды в Бухте Амбарчик
  • Монитор погоды в Бухте Амбарчик
  • Климат города

АРХИВ ПОГОДЫ в Бухте Амбарчик

Время (UTC), дата Ветер
(напр.,м/с)
 
Видим.   Явления Облачность Т
(С)
Тd
(С)
f
(%)
Тe
(С)
Тes
(С)
Комфортность P
(гПа)
Po
(гПа)
Тmin
(С)
Tmax
(С)
R
(мм)
R24
(мм)
S
(см)
00 14.01 штиль 0
{5}
20 км 4/0
[Ac trans]
-33.8 -37.5 69 -34 -34 опасность
обморожения
1016.4 1013.0
03 14.01 З 2
{6}
20 км 3/0
[Ac trans]
-36.0 -40.1 66 -44 -44 опасность
обморожения
1014.9 1011.5
06 14.01 ЮЗ 1
{5}
20 км 6/0
[Ac trans Ci fib]
-36.6 -40.6 66 -41 -41 опасность
обморожения
1013.8 1010.4
09 14.01 З 4
{5}
20 км 8/0
[Ac trans Ci fib]
-34.3 -38.2 68 -47 -47 опасность
обморожения
1013.1 1009.7 -33.8
12 14.01 З 5
{6}
20 км позёмок {метель} 8/0
[Ac trans Ci fib]
-34.5 -38.3 68 -48 -48 опасность
обморожения
1012.0 1008.6
15 14.01 З 6
{8}
20 км позёмок {метель} 8/0
[Ac trans Ci fib]
-32.8 -36.4 70 -47 -47 опасность
обморожения
1011.1 1007.7
18 14.01 ЮЗ 6
{8}
20 км позёмок {метель} 9/0
[Ac trans Ci fib]
-31.1 -34.5 72 -45 -45 опасность
обморожения
1010.4 1007.1
21 14.01 ЮЗ 7
{8}
20 км позёмок {метель} 10/0
[Ac und]
-29.6 -32.9 73 -44 -44 опасность
обморожения
1010.6 1007.3 -35.2 25
00 15.01 З 7
{8}
4000 м слабый снег {метель} 10/0
[As op]
-29.7 -32.8 74 -44 -44 опасность
обморожения
1009.9 1006.6
03 15.01 З 7
{9}
10 км снежные кристаллы {метель} 10/0
[As op]
-28.1 -31.2 75 -42 -42 опасность
обморожения
1010.0 1006.7
06 15.01 З 6
{9}
20 км позёмок {снег, метель} 10/0
[Ac und]
-27.1 -30.1 76 -40 -40 опасность
обморожения
1010.3 1007.1
09 15.01 З 7
{9}
20 км позёмок {метель} 10/0
[Ac und]
-28.1 -31.1 75 -42 -42 опасность
обморожения
1010.6 1007.3 -27.0 0.3
12 15.01 З 9-10
{10}
4000 м метель 10/0
[Ac und]
-28.9 -32.0 74 -45 -45 опасность
обморожения
1010.9 1007.6
15 15.01 З 9-10
{10}
4000 м метель 10/0
[Ac und]
-29.3 -32.4 74 -45 -45 опасность
обморожения
1010.4 1007.1
18 15.01 З 9-10
{11}
20 км метель 10/0
[Ac trans]
-29.9 -33.2 73 -46 -46 опасность
обморожения
1010.1 1006.8
21 15.01 З 10-11
{11}
4000 м метель 10/0
[Ac und]
-30.3 -33.6 73 -47 -47 опасность
обморожения
1009.9 1006.6 -30.3 25
00 16.01 ЮЗ 11-12
{12}
4000 м метель 10/0
[Ac und]
-30.6 -34.0 72 -48 -48 опасность
обморожения
1009.6 1006.3 -30.7
03 16.01 ЮЗ 11-13
{13}
4000 м метель 10/0
[Ac und]
-30.1 -33.4 73 -48 -48 опасность
обморожения
1008.6 1005.2
06 16.01 ЮЗ 11-13
{14}
4000 м метель {снег} 10/5 300 м
[Sc Ac und]
-29.2 -32.4 74 -46 -46 опасность
обморожения
1007.7 1004.4
09 16.01 ЮЗ 11-13
{14}
4000 м метель 10/6 300 м
[Sc Ac und]
-28.6 -31.8 74 -46 -46 опасность
обморожения
1007.4 1004.1 -28.6 0.0
12 16.01 ЮЗ 12-14
{14}
4000 м метель 10/6 300 м
[Sc Ac und]
-28.1 -31.2 75 -46 -46 опасность
обморожения
1007.3 1004.0
15 16.01 ЮЗ 12-14
{14}
4000 м метель 10/6 300 м
[Sc Ac und]
-28.7 -31.9 74 -46 -46 опасность
обморожения
1006.9 1003.6
18 16.01 ЮЗ 12-14
{14}
4000 м метель 10/6 300 м
[Sc Ac und]
-28.2 -31.3 75 -46 -46 опасность
обморожения
1007.3 1004.0
21 16.01 ЮЗ 12-14
{14}
4000 м метель 10/4 600 м
[Sc Ac und]
-28.8 -32.0 74 -46 -46 опасность
обморожения
1008.1 1004.8 -28.8 25
00 17.01 ЮЗ 12-14
{14}
4000 м метель 10/4 600 м
[Sc Ac und]
-28.8 -32.0 74 -46 -46 опасность
обморожения
1008.8 1005.5
03 17.01 ЮЗ 12-15
{16}
2000 м метель 10/4 600 м
[Sc Ac und]
-29.2 -32.4 74 -47 -47 опасность
обморожения
1009.5 1006.2
06 17.01 ЮЗ 13-15
{15}
2000 м метель 10/5 600 м
[Sc Ac und]
-29.3 -32.4 74 -48 -48 опасность
обморожения
1009.9 1006.6
09 17.01 ЮЗ 12-15
{16}
2000 м метель 10/8 600 м
[Sc Ac und]
-29.1 -32.3 74 -47 -47 опасность
обморожения
1010.8 1007.5 -28.5
12 17.01 ЮЗ 13-16
{16}
2000 м метель 10/8 600 м
[Sc Ac und]
-28.8 -32.0 74 -47 -47 опасность
обморожения
1011.2 1007.9
15 17.01 ЮЗ 13-15
{16}
2000 м метель 10/8 600 м
[Sc Ac und]
-29.2 -32.4 74 -48 -48 опасность
обморожения
1011.7 1008.4
18 17.01 ЮЗ 14-17
{17}
2000 м метель 10/8 600 м
[Sc Ac und]
-29.9 -33.2 73 -49 -49 опасность
обморожения
1012.2 1008.9
21 17.01 ЮЗ 14-17
{17}
2000 м метель 10/3 600 м
[Sc Ac und]
-30.4 -33.8 72 -50 -50 опасность
обморожения
1013.2 1009.9 -30.4 25
00 18.01 ЮЗ 14-16
{18}
1000 м метель 10/3 600 м
[Sc Ac und]
-31.6 -35.2 70 -51 -51 опасность
обморожения
1013.7 1010.4 -31.6
03 18.01 ЮЗ 13-15
{18}
1000 м метель 10/0
[Ac trans]
-33.0 -36.7 69 -53 -53 опасность
обморожения
1014.8 1011.4
06 18.01 ЮЗ 12-14
{16}
2000 м метель 6/0
[Ac trans]
-32.8 -36.6 69 -52 -52 опасность
обморожения
1015.5 1012.1
09 18.01 ЮЗ 13-15
{17}
2000 м метель 6/0
[Ac trans]
-32.7 -36.3 70 -52 -52 опасность
обморожения
1016.1 1012.7 -30.4
12 18.01 ЮЗ 15-18
{18}
1000 м метель 6/0
[Ac trans]
-32.7 -36.3 70 -53 -53 опасность
обморожения
1016.0 1012.6
15 18.01 ЮЗ 18-20
{21}
50 м сильная метель ?/? -32.0 -35.5 71 -54 -54 опасность
обморожения
1015.9 1016.0
18 18.01 ЮЗ 18-20
{22}
50 м сильная метель ?/? -31.5 -35.0 71 -53 -53 опасность
обморожения
1017.1 1013.8
21 18.01 ЮЗ 17-20
{22}
50 м сильная метель ?/? -31.1 -34.6 71 -52 -52 опасность
обморожения
1018.2 1014.9 -32.9 0.3 25
00 19.01 ЮЗ 15-18
{21}
50 м сильная метель ?/? -31.0 -34.5 71 -51 -51 опасность
обморожения
1020.0 1016.7
03 19.01 ЮЗ 15-17
{19}
50 м сильная метель ?/? -31.1 -34.7 70 -51 -51 опасность
обморожения
1019.9 1016.6
06 19.01 ЮЗ 15-15
{19}
500 м сильная метель 8/0
[Ac trans Ci fib]
-30.5 -33.9 72 -50 -50 опасность
обморожения
1020.8 1017.5
09 19.01 ЮЗ 10-12
{16}
4000 м метель 8/0
[Ac trans Ci fib]
-30.9 -34.5 70 -48 -48 опасность
обморожения
1021.8 1018.5 -30.4 0.2
12 19.01 ЮЗ 11-14
{14}
4000 м метель 9/0
[Ac trans Ci fib]
-30.5 -33.9 72 -48 -48 опасность
обморожения
1022.1 1018.8
15 19.01 ЮЗ 12-15
{16}
1000 м метель 9/0
[Ac trans Ci fib]
-30.1 -33.6 71 -48 -48 опасность
обморожения
1022.3 1019.0
18 19.01 ЮЗ 13-15
{17}
1000 м метель 9/0
[Ac trans Ci fib]
-27.9 -31.1 74 -46 -46 опасность
обморожения
1023.5 1020.2
21 19.01 ЮЗ 8-10
{15}
20 км позёмок {метель} 8/0
[Ac trans Ci fib]
-28.4 -32.0 71 -43 -43 опасность
обморожения
1024.8 1021.5 -31.4 25
00 20.01 ЮЗ 9-11
{11}
20 км позёмок {метель} 4/0
[Ac trans]
-29.4 -33.3 69 -45 -45 опасность
обморожения
1025.8 1022.5
03 20.01 З 5
{11}
20 км позёмок {метель} 3/0
[Ac trans]
-33.4 -37.3 68 -47 -47 опасность
обморожения
1027.2 1023.8
06 20.01 З 2
{8}
20 км {метель} 4/0
[Ac trans]
-31.4 -35.4 68 -39 -39 опасность
обморожения
1028.8 1025.4
09 20.01 ЮЗ 3
{5}
20 км 3/0
[Ci fib]
-31.2 -35.2 68 -41 -41 опасность
обморожения
1030.2 1026.8 -28.4
12 20.01 З 4
{6}
20 км 3/0
[Ci fib]
-31.7 -35.6 68 -43 -43 опасность
обморожения
1031.7 1028.3
15 20.01 штиль 0
{5}
20 км 3/0
[Ci fib]
-34.2 -38.2 67 -34 -34 опасность
обморожения
1032.4 1029.0
18 20.01 штиль 0
{5}
20 км 3/0
[Ci fib]
-35.0 -39.0 67 -35 -35 опасность
обморожения
1032.7 1029.3
21 20.01 В 1
{6}
20 км 3/0
[Ci fib]
-30.8 -34.7 68 -35 -35 опасность
обморожения
1033.2 1029.8 -35.3 25

 

Местоположение метеостанции Бухта Амбарчик (Чукотка, Россия): широта 69.62 долгота 162.30 высота над уровнем моря 23 м.

В архиве по умолчанию представлена погода в Бухте Амбарчик за последнюю неделю. Архивные данные за месяц целиком и за предыдущие месяцы, начиная с января 2011 года, Вы можете получить, выбрав интересующий диапазон дат из раскрывающегося списка и нажав кнопку "Ввод!".

Внимание! Время в таблицах - всемирное. Для получения местного времени необходимо прибавить поправку, которая в Бухте Амбарчик равна 12 ч.

Смотрите также архив погоды в соседних городах и на ближайших метеорологических станциях:

Погода в Черском (Якутия, Россия) (107 км)
Погода в Анюйске (Чукотка, Россия) (145 км)
Погода в Раучуе (Чукотка, Россия) (164 км)
Погода в Константиновской (Чукотка, Россия) (170 км)
Погода в Колымской (Якутия, Россия) (177 км)
Погода на Островном (Чукотка, Россия) (182 км)
Погода на Айон Острове (Чукотка, Россия) (218 км)
Погода в Билибино (Чукотка, Россия) (240 км)
Погода в Певеке (Чукотка, Россия) (305 км)
Погода в Андрюшкино (Якутия, Россия) (309 км)

Пояснения к столбцам:

Ветер - указаны скорость ветра в м/с - средняя за 10 мин, порывы в срок и между сроками (в фигурных скобках) и направление, откуда дует ветер: С - северный, СВ - северо-восточный, В - восточный, ЮВ - юго-восточный, Ю - южный, ЮЗ - юго-западный, З - западный, СЗ - северо-западный.
Видимость - горизонтальная дальность видимости в метрах или километрах. При видимости от 1 до 10 км при отсутствии осадков обычно наблюдается дымка, при ухудшении видимости до 1 км и менее - туман. В сухую погоду видимость может ухудшаться дымом, пылью или мглою.
Явления - указаны атмосферные явления, наблюдавшиеся в срок или в последний час перед сроком; фигурными скобками обозначены явления, наблюдавшиеся между сроками (за 1-3 часа до срока); квадратными скобками обозначены град или гололедные отложения с указанием их диаметра в мм.
Облачность - указаны через наклонную черту общая и нижняя облачность в баллах и высота нижней границы облаков в метрах; квадратными скобками обозначены формы облаков: Ci - перистые, Cs - перисто-слоистые, Cc - перисто-кучевые, Ac - высококучевые, As - высокослоистые, Sc - слоисто-кучевые, Ns - слоисто-дождевые, Cu - кучевые, Cb - кучево-дождевые. Подробнее классификацию облаков см. в Атласе облаков (PDF).
T - Температура воздуха - температура, измеренная на высоте 2 м над землей.
Td - Температура точки росы - температура, при понижении до которой содержащийся в воздухе водяной пар достигнет насыщения.
f - Относительная влажность воздуха - влажноcть воздуха, измеренная на высоте 2 м над землей.
Te - Эффективная температура - температура, которую ощущает одетый по сезону человек в тени. Характеристика душности погоды. При расчете учитывается влияние влажности воздуха и скорости ветра на теплоощущения человека.
Tes - Эффективная температура на солнце - температура, которую ощущает человек, с поправкой на солнечный нагрев. Характеристика знойности погоды. Зависит от высоты солнца над горизонтом, облачности и скорости ветра. Ночью, в пасмурную погоду, а также при ветре 12 м/с и более поправка равна нулю.
P - Атмосферное давление - приведенное к уровню моря атмосферное давление.
Po - Атмосферное давление - измеренное на уровне метеостанции атмосферное давление.
Tmin - Минимальная температура - минимум температуры воздуха на высоте 2 м над землей.
Tmax - Максимальная температура - максимум температуры воздуха на высоте 2 м над землей.
R - Количество осадков - Количество выпавших осадков за период времени, мм. При наведении курсора мыши на число - период времени, за который выпало указанное количество осадков.
R24 - Количество осадков - Количество выпавших осадков за 24 часа, мм.
S - Снежный покров - Высота снежного покрова, см. При наведении курсора мыши на число - состояние снежного покрова и степень покрытия местности в баллах.